Location: Sternwarte ZA, Rosenfeld-Brittheim
(48.2889°N, 8.6789°E)
Time: 12:18:00
(UTC+02:00)

ISS - Pass Details

Date: 17 May 2018
Orbit: 402 x 407 km, 51.6° (Epoch: 24 May)

Event Time Altitude Azimuth Distance (km) Brightness Sun altitude
Exits shadow 02:39:02 32° 297° (WNW) 711 -2.6 -20.3°
Maximum altitude 02:40:08 48° 351° (N) 533 -2.9 -20.2°
Drops below altitude 10° 02:43:19 10° 68° (ENE) 1,459 -0.5 -20.0°
Sets 02:45:27 0° 74° (ENE) 2,319 0.6 -19.9°
